Location: Archemont
(49.1579°N, 1.7598°E)
Time: 14:50:12
(UTC+00:00)

Transit 2A - Pass Details

Date: 20 April 2024
Orbit: 594 x 958 km, 66.7° (Epoch: 28 May)

Event Time Altitude Azimuth Distance (km) Brightness Sun altitude
Rises 11:45:09 0° 322° (NW) 3,101 8.8 52.6°
Reaches altitude 10° 11:48:38 10° 348° (NNW) 2,262 8.2 52.6°
Maximum altitude 11:51:20 14° 19° (NNE) 2,052 8.0 52.6°
Drops below altitude 10° 11:54:10 10° 51° (NE) 2,390 8.4 52.6°
Sets 11:58:00 0° 76° (ENE) 3,409 9.2 52.6°
